Date String (YYYY-MM-DD hh:mm:ss) UTC,Instrument flags,absolute air pressure of the measurement (hPa),sample flow rate (lpm),inlet stack bypass flow (lpm),air temperature of the measurement (°C),ambient temperature measured by the external sensor (°C),aerosol sample conditioner tube jacket temperature (°C),OPC LED temperature (°C),internal box temperature (°C),relative humidity of the measurement (%),span deviation,mass concentration of particles derived from Lorenz-Mie calculation of OPC scattering (μg/m³),mass concentration of particles derived from Lorenz-Mie calculation of OPC scattering (μg/m³),mass concentration of particles derived from Lorenz-Mie calculation of OPC scattering (μg/m³)
DateTimeUTC,F1_M11,P_M11,Q1_M11,Q2_M11,T1_M11,T2_M11,T3_M11,T4_M11,T5_M11,U1_M11,ZSPAN_M11,X0_M11,X2_M11,X1_M11
2024-04-11 07:00:00,SystemResetWarning,0834.2,5.01,000.00,025.2,024.4,000.0,033.8,027.1,016.8,0000.0,0004.64,0001.45,0000.99
2024-04-11 07:01:00,SystemResetWarning,0834.6,5.01,000.00,025.2,024.4,000.0,033.8,027.1,016.7,0000.0,0004.35,0001.44,0000.99
2024-04-11 07:02:00,SystemResetWarning,0834.4,4.99,000.00,025.2,024.4,000.0,033.8,027.1,016.8,0000.0,0004.08,0001.45,0000.99
2024-04-11 07:03:00,SystemResetWarning,0834.3,5.00,000.00,025.2,024.4,000.0,033.8,027.1,016.9,0000.0,0003.44,0001.42,0000.97
2024-04-11 07:04:00,SystemResetWarning,0834.2,4.99,000.00,025.2,024.4,000.0,033.8,027.1,017.0,0000.0,0002.91,0001.43,0000.97
2024-04-11 07:05:00,SystemResetWarning,0834.5,5.01,000.00,025.2,024.4,000.0,033.8,027.1,017.0,0000.0,0002.92,0001.43,0000.97
2024-04-11 07:06:00,SystemResetWarning,0834.4,5.01,000.00,025.2,024.4,000.0,033.8,027.1,016.9,0000.0,0002.70,0001.46,0000.97
2024-04-11 07:07:00,SystemResetWarning,0834.4,5.00,000.00,025.2,024.4,000.0,033.8,027.1,016.9,0000.0,0002.73,0001.46,0000.98
2024-04-11 07:08:00,SystemResetWarning,0834.6,4.99,000.00,025.2,024.4,000.0,033.8,027.1,016.9,0000.0,0002.55,0001.42,0000.97
2024-04-11 07:09:00,SystemResetWarning,0834.4,4.99,000.00,025.2,024.4,000.0,033.8,027.1,017.0,0000.0,0002.41,0001.39,0000.98
2024-04-11 07:10:00,SystemResetWarning,0834.3,5.00,000.00,025.2,024.4,000.0,033.8,027.1,017.0,0000.0,0002.41,0001.41,0000.98
2024-04-11 07:11:00,SystemResetWarning,0834.5,5.00,000.00,025.2,024.4,000.0,033.8,027.1,016.9,0000.0,0002.52,0001.43,0000.97
2024-04-11 07:12:00,SystemResetWarning,0834.6,5.00,000.00,025.2,024.4,000.0,033.8,027.1,016.9,0000.0,0002.50,0001.43,0000.98
2024-04-11 07:13:00,SystemResetWarning,0834.7,5.00,000.00,025.2,024.4,000.0,033.8,027.1,016.8,0000.0,0002.57,0001.44,0000.98
2024-04-11 07:14:00,SystemResetWarning,0834.7,5.00,000.00,025.2,024.4,000.0,033.8,027.0,016.8,0000.0,0002.85,0001.49,0000.99
2024-04-11 07:15:00,SystemResetWarning,0834.5,5.01,000.00,025.2,024.4,000.0,033.8,027.1,016.8,0000.0,0002.87,0001.49,0001.00
2024-04-11 07:16:00,SystemResetWarning,0834.6,5.01,000.00,025.2,024.4,000.0,033.8,027.1,016.8,0000.0,0002.92,0001.51,0000.99
2024-04-11 07:17:00,SystemResetWarning,0834.3,5.01,000.00,025.1,024.4,000.0,033.8,027.0,016.8,0000.0,0002.88,0001.51,0001.00
2024-04-11 07:18:00,SystemResetWarning,0834.5,5.00,000.00,025.1,024.4,000.0,033.8,027.1,016.8,0000.0,0002.79,0001.48,0001.00
2024-04-11 07:19:00,SystemResetWarning,0834.6,5.00,000.00,025.2,024.4,000.0,033.8,027.1,016.8,0000.0,0002.72,0001.45,0001.00
2024-04-11 07:20:00,SystemResetWarning,0834.3,5.00,000.00,025.1,024.4,000.0,033.8,027.1,016.8,0000.0,0002.77,0001.46,0001.00
2024-04-11 07:21:00,SystemResetWarning,0834.3,5.00,000.00,025.1,024.4,000.0,033.8,027.0,016.8,0000.0,0002.74,0001.47,0001.00
2024-04-11 07:22:00,SystemResetWarning,0834.3,4.99,000.00,025.1,024.4,000.0,033.8,027.0,016.9,0000.0,0002.77,0001.47,0001.00
2024-04-11 07:23:00,SystemResetWarning,0834.3,5.00,000.00,025.1,024.4,000.0,033.8,027.0,016.9,0000.0,0002.88,0001.49,0001.01
2024-04-11 07:24:00,SystemResetWarning,0834.4,5.01,000.00,025.1,024.4,000.0,033.8,027.0,017.0,0000.0,0002.88,0001.47,0001.00
2024-04-11 07:25:00,SystemResetWarning,0834.4,5.01,000.00,025.1,024.4,000.0,033.8,027.0,017.0,0000.0,0002.72,0001.45,0001.00
2024-04-11 07:26:00,SystemResetWarning,0834.2,4.99,000.00,025.1,024.4,000.0,033.8,027.1,017.0,0000.0,0002.61,0001.42,0000.99
2024-04-11 07:27:00,SystemResetWarning,0834.2,5.00,000.00,025.1,024.3,000.0,033.8,027.0,017.0,0000.0,0002.55,0001.41,0000.99
2024-04-11 07:28:00,SystemResetWarning,0834.2,4.99,000.00,025.1,024.4,000.0,033.7,027.0,016.9,0000.0,0002.57,0001.41,0000.99
2024-04-11 07:29:00,SystemResetWarning,0834.2,5.00,000.00,025.1,024.4,000.0,033.7,027.0,016.8,0000.0,0002.63,0001.40,0000.98
2024-04-11 07:30:00,SystemResetWarning,0834.1,5.00,000.00,025.1,024.4,000.0,033.7,027.0,016.8,0000.0,0002.71,0001.44,0000.99
2024-04-11 07:31:00,SystemResetWarning,0834.2,5.01,000.00,025.1,024.3,000.0,033.7,027.0,016.8,0000.0,0002.70,0001.44,0001.00
2024-04-11 07:32:00,SystemResetWarning,0834.2,5.00,000.00,025.1,024.3,000.0,033.7,027.0,016.8,0000.0,0002.68,0001.43,0001.00
2024-04-11 07:33:00,SystemResetWarning,0834.1,5.00,000.00,025.1,024.3,000.0,033.7,027.0,016.9,0000.0,0002.61,0001.43,0001.00
2024-04-11 07:34:00,SystemResetWarning,0834.1,5.00,000.00,025.1,024.3,000.0,033.7,027.0,016.9,0000.0,0002.51,0001.42,0001.00
2024-04-11 07:35:00,SystemResetWarning,0834.1,5.00,000.00,025.1,024.3,000.0,033.7,027.0,017.0,0000.0,0002.51,0001.42,0001.01
2024-04-11 07:36:00,SystemResetWarning,0834.1,4.99,000.00,025.1,024.3,000.0,033.7,027.0,017.0,0000.0,0002.42,0001.43,0001.02
2024-04-11 07:37:00,SystemResetWarning,0834.1,5.00,000.00,025.1,024.3,000.0,033.7,027.0,017.0,0000.0,0002.42,0001.45,0001.03
2024-04-11 07:38:00,SystemResetWarning,0834.1,5.00,000.00,025.1,024.3,000.0,033.7,027.0,017.0,0000.0,0002.57,0001.49,0001.03
2024-04-11 07:39:00,SystemResetWarning,0834.1,5.00,000.00,025.1,024.3,000.0,033.7,027.0,017.0,0000.0,0003.47,0001.50,0001.04
2024-04-11 07:40:00,SystemResetWarning,0834.1,5.00,000.00,025.1,024.3,000.0,033.7,027.0,016.9,0000.0,0004.35,0001.53,0001.04
2024-04-11 07:41:00,SystemResetWarning,0834.1,5.00,000.00,025.1,024.3,000.0,033.7,027.0,016.9,0000.0,0004.38,0001.54,0001.04
2024-04-11 07:42:00,SystemResetWarning,0834.1,5.00,000.00,025.1,024.3,000.0,033.7,027.0,016.9,0000.0,0004.32,0001.51,0001.04
2024-04-11 07:43:00,SystemResetWarning,0834.0,5.01,000.00,025.1,024.3,000.0,033.7,027.0,016.9,0000.0,0004.34,0001.52,0001.05
2024-04-11 07:44:00,SystemResetWarning,0834.0,5.00,000.00,025.1,024.3,000.0,033.7,027.0,016.9,0000.0,0004.82,0001.49,0001.06
2024-04-11 07:45:00,SystemResetWarning,0834.0,5.00,000.00,025.1,024.3,000.0,033.7,027.0,017.0,0000.0,0005.41,0001.48,0001.06
2024-04-11 07:46:00,SystemResetWarning,0834.0,5.00,000.00,025.1,024.3,000.0,033.7,027.0,016.9,0000.0,0005.36,0001.50,0001.08
2024-04-11 07:47:00,SystemResetWarning,0834.0,5.01,000.00,025.1,024.3,000.0,033.7,027.0,016.9,0000.0,0005.34,0001.49,0001.08
2024-04-11 07:48:00,SystemResetWarning,0833.9,5.00,000.00,025.1,024.3,000.0,033.7,027.0,016.9,0000.0,0005.31,0001.47,0001.08
2024-04-11 07:49:00,SystemResetWarning,0834.0,4.99,000.00,025.1,024.3,000.0,033.7,027.0,016.8,0000.0,0005.32,0001.48,0001.08
2024-04-11 07:50:00,SystemResetWarning,0833.9,4.99,000.00,025.1,024.3,000.0,033.7,027.0,016.9,0000.0,0004.65,0001.46,0001.09
2024-04-11 07:51:00,SystemResetWarning,0834.0,5.00,000.00,025.1,024.3,000.0,033.7,027.0,017.0,0000.0,0003.52,0001.47,0001.10
2024-04-11 07:52:00,SystemResetWarning,0833.9,5.01,000.00,025.1,024.3,000.0,033.7,027.0,017.0,0000.0,0003.45,0001.47,0001.11
2024-04-11 07:53:00,SystemResetWarning,0833.9,5.01,000.00,025.1,024.3,000.0,033.7,027.0,017.0,0000.0,0003.83,0001.53,0001.12
2024-04-11 07:54:00,SystemResetWarning,0834.0,5.00,000.00,025.1,024.3,000.0,033.7,027.0,016.9,0000.0,0004.86,0001.54,0001.10
2024-04-11 07:55:00,SystemResetWarning,0833.9,5.01,000.00,025.1,024.3,000.0,033.7,027.0,016.9,0000.0,0004.66,0001.60,0001.10
2024-04-11 07:56:00,SystemResetWarning,0833.9,5.00,000.00,025.1,024.3,000.0,033.7,027.0,016.9,0000.0,0004.27,0001.60,0001.10
2024-04-11 07:57:00,SystemResetWarning,0833.9,4.99,000.00,025.1,024.3,000.0,033.7,027.0,017.0,0000.0,0005.03,0001.63,0001.10
2024-04-11 07:58:00,SystemResetWarning,0833.8,4.99,000.00,025.1,024.3,000.0,033.7,027.0,016.9,0000.0,0005.06,0001.62,0001.09
2024-04-11 07:59:00,SystemResetWarning,0833.9,5.00,000.00,025.1,024.3,000.0,033.7,027.0,016.9,0000.0,0004.99,0001.60,0001.10
